Weather in Libochovice

Czech Republic     50°24′20″N   14°02′20″E
temp.,
°C
wind,
m/s
gust,
m/s
humid.,
%
clouds,
%
prec.,
mm/h
press.,
hPa
HPBL,
m
7 may, fri
fri723:00+6ssw1395100 1.3 1006216
02:00+6ese1197100 3.8 100474
05:00+6wnw269599 1.4 1004423
08:00+6wnw5989100 1.6 10071026
11:00+7wnw4781100 0.3 10091098
14:00+9wnw8105579 0.8 10111958
17:00+9nw6952100 0.3 10132039
20:00+6nw48725 0.7 1016353
8 may, sat
sat823:00+2wsw22845 0.0 101921
02:000w22905 0.0 102131
05:000wsw22905 0.0 102122
08:00+5sw247116 0.0 1021265
11:00+10sw455462 0.0 10201525
14:00+13wsw3542100 0.1 10192069
17:00+14ssw354028 0.0 10182116
20:00+9s346847 0.0 101855
9 may, sun
sun923:00+7se1161100 0.0 101813
02:00+4e11716 0.0 101810
05:00+3ese11795 0.0 101811
08:00+7ese22725 0.0 1017237
11:00+14se35615 0.0 1016632
14:00+20se575037 0.0 10141217
17:00+20se675827 0.0 10121167
20:00+15ese4107878 0.0 1012333
10 may, mon
mon1023:00+9e36865 0.0 1013131
02:00+7ene23909 0.0 101248
05:00+6ene229025 0.0 101223
08:00+11ese35765 0.0 1011388
11:00+16sse45664 0.0 1010809
14:00+21sse34565 0.0 10101121
17:00+23se445683 0.0 10101238
20:00+17e378315 0.0 1010140
11 may, tue
tue1123:00+14ene35945 0.0 100987
02:00+13e3995100 0.0 1008232
05:00+11ene2295100 0.0 100824
08:00+14ese128743 0.0 1009350
11:00+17e2278100 0.0 1008754
14:00+19ese2371100 0.0 1007915
17:00+21nne3469100 0.0 1005731
20:00+15n5795100 0.9 1004197